User: anonymous
Location: Caltech
(34.1382°N, 118.1253°W)
Time: 16:42:54
(UTC-07:00)
Language:

COSMOS 2428 - Orbit

View from above orbital plane
View from above orbital plane
View from above satellite
View from above satellite

Ground track
Ground track

The orbit data is extracted from the following two-line orbital elements,

1 31792U 07029A   14245.87766909  .00000311  00000-0  19407-3 0  9526
2 31792 070.9672 026.7480 0007293 354.0321 118.4324 14.12408986370287
Epoch (UTC): 02 September 2014 21:03:50
Eccentricity: 0.0007293
inclination: 70.9672°
perigee height: 846 km
apogee height: 856 km
right ascension of ascending node: 26.7480°
argument of perigee: 354.0321°
revolutions per day: 14.12408986
mean anomaly at epoch: 118.4324°
orbit number at epoch: 37028

The dashed part of the orbit path shows where the satellite is in the earth's shadow,  

DLR